This demonstration page uses our WeatherBlox Daily Observations layout. Learn more.

Hourly Observations for June 1, 2015

Temp ( °F °C ) Dew Point ( °F °C ) Humidity (%) Winds ( mph kmh ) Pressure ( in mb ) Visibility ( mi km ) Precip ( " mm )
12:15 am 00:15 Clear 60 15.7 52 11.3 75 75 SE 10 17 30.06 1018 10 16.0934 0 0
12:35 am 00:35 Clear 60 15.3 52 11.2 77 77 SE 10 17 30.06 1018 10 16.0934 0 0
12:55 am 00:55 Partly Cloudy 60 15.3 52 11.3 77 77 SE 9 15 30.06 1018 10 16.0934 0 0
1:15 am 01:15 Mostly Cloudy 59 15.1 53 11.4 79 79 SE 8 13 30.06 1018 10 16.0934 0 0
1:35 am 01:35 Partly Cloudy 59 14.8 52 11.3 80 80 SE 9 15 30.06 1018 10 16.0934 0 0
1:55 am 01:55 Partly Cloudy 58 14.5 52 11.3 81 81 SE 9 15 30.06 1018 10 16.0934 0 0
2:15 am 02:15 Partly Cloudy 58 14.3 52 11.3 82 82 SE 12 19 30.06 1018 10 16.0934 0 0
2:35 am 02:35 Clear 57 14.1 52 11.3 83 83 SE 9 15 30.06 1018 10 16.0934 0 0
2:55 am 02:55 Partly Cloudy 57 14.1 53 11.4 84 84 SSE 8 13 30.06 1018 10 16.0934 0 0
3:15 am 03:15 Partly Cloudy 57 14 52 11.3 84 84 SSE 9 15 30.06 1018 10 16.0934 0 0
3:35 am 03:35 Partly Cloudy 57 14 53 11.5 85 85 SSE 12 19 30.06 1018 10 16.0934 0 0
3:55 am 03:55 Partly Cloudy 57 13.7 53 11.5 87 87 SE 10 17 30.06 1018 10 16.0934 0 0
4:15 am 04:15 Partly Cloudy 57 13.7 53 11.5 87 87 SSE 10 17 30.03 1017 10 16.0934 0 0
4:35 am 04:35 Partly Cloudy 56 13.5 53 11.5 88 88 SSE 9 15 30.06 1018 10 16.0934 0 0
4:55 am 04:55 Partly Cloudy with Nearby Thunderstorms 56 13.4 53 11.5 88 88 SSE 9 15 30.09 1019 10 16.0934 0 0
5:15 am 05:15 Partly Cloudy 55 13 52 11.3 90 90 SE 8 13 30.09 1019 10 16.0934 0 0
5:35 am 05:35 Clear 55 12.7 52 11.2 91 91 SSE 9 15 30.09 1019 10 16.0934 0 0
5:55 am 05:55 Clear 55 12.5 52 11.1 91 91 SSE 8 13 30.09 1019 10 16.0934 0 0
6:15 am 06:15 Sunny 55 12.5 53 11.4 93 93 SE 7 11 30.09 1019 10 16.0934 0 0
6:35 am 06:35 Sunny 55 12.6 52 11.3 92 92 SE 7 11 30.09 1019 10 16.0934 0 0
6:55 am 06:55 Partly Cloudy 55 12.7 53 11.7 94 94 SE 10 17 30.09 1019 10 16.0934 0 0
7:15 am 07:15 Cloudy 56 13.3 54 12.3 94 94 SSE 13 20 30.09 1019 10 16.0934 0 0
7:35 am 07:35 Cloudy 57 13.7 55 12.6 93 93 SSE 14 22 30.06 1018 10 16.0934 0 0
7:55 am 07:55 Cloudy 58 14.2 55 13 93 93 SSE 12 19 30.06 1018 10 16.0934 0 0
8:15 am 08:15 Mostly Cloudy 58 14.7 55 13 90 90 SSE 15 24 30.06 1018 10 16.0934 0 0
8:35 am 08:35 Mostly Cloudy 60 15.5 56 13.3 87 87 SSE 14 22 30.06 1018 10 16.0934 0 0
8:55 am 08:55 Cloudy 61 16.3 56 13.5 84 84 SSE 13 20 30.06 1018 10 16.0934 0 0
9:15 am 09:15 Mostly Cloudy 63 17.2 56 13.5 79 79 SSE 14 22 30.03 1017 10 16.0934 0 0
9:35 am 09:35 Partly Cloudy 64 18 56 13.5 75 75 SSE 14 22 30.03 1017 10 16.0934 0 0
9:55 am 09:55 Sunny 66 18.9 56 13.5 71 71 SSE 16 26 30.03 1017 10 16.0934 0 0
10:15 am 10:15 Sunny 67 19.4 56 13.3 68 68 S 17 28 30.03 1017 10 16.0934 0 0
10:35 am 10:35 Partly Cloudy 68 19.9 56 13.4 66 66 SSE 16 26 30.03 1017 10 16.0934 0 0
10:55 am 10:55 Partly Cloudy 68 20 56 13.6 67 67 S 15 24 30.03 1017 10 16.0934 0 0
11:15 am 11:15 Mostly Cloudy 67 19.6 57 13.9 70 70 S 14 22 30.03 1017 10 16.0934 0 0
11:35 am 11:35 Cloudy 68 19.8 57 14.1 70 70 SSE 15 24 30.03 1017 10 16.0934 0 0
11:55 am 11:55 Cloudy 68 19.9 58 14.2 70 70 SSE 13 20 30.03 1017 10 16.0934 0 0
12:15 pm 12:15 Mostly Cloudy 69 20.7 58 14.5 68 68 S 15 24 29.97 1015 10 16.0934 0 0
12:35 pm 12:35 Mostly Cloudy 69 20.8 58 14.3 66 66 SSE 16 26 29.97 1015 10 16.0934 0 0
12:55 pm 12:55 Cloudy 69 20.8 58 14.4 67 67 SSE 14 22 29.97 1015 10 16.0934 0 0
1:15 pm 13:15 Cloudy 70 21 58 14.5 67 67 S 17 28 29.97 1015 10 16.0934 0 0
1:35 pm 13:35 Cloudy 70 21 58 14.4 66 66 SSE 16 26 29.97 1015 10 16.0934 0 0
1:55 pm 13:55 Cloudy 70 21.2 58 14.5 66 66 S 15 24 29.97 1015 10 16.0934 0 0
2:15 pm 14:15 Cloudy 70 21.1 58 14.4 66 66 S 17 28 29.97 1015 10 16.0934 0 0
2:35 pm 14:35 Cloudy 70 21 58 14.4 66 66 S 20 31 29.97 1015 10 16.0934 0 0
2:55 pm 14:55 Cloudy 71 21.5 59 14.8 66 66 SSE 17 28 29.97 1015 10 16.0934 0 0
3:15 pm 15:15 Cloudy 70 21.2 58 14.5 66 66 SSE 17 28 29.97 1015 10 16.0934 0 0
3:35 pm 15:35 Cloudy 71 21.7 58 14.7 65 65 SSE 20 31 29.97 1015 10 16.0934 0 0
3:55 pm 15:55 Cloudy 71 21.4 58 14.6 65 65 SSE 18 30 29.97 1015 10 16.0934 0 0
4:15 pm 16:15 Cloudy 72 22.2 58 14.7 63 63 SSE 17 28 29.94 1014 10 16.0934 0 0
4:35 pm 16:35 Mostly Cloudy 73 22.7 59 15 62 62 SSE 20 31 29.94 1014 10 16.0934 0 0
4:55 pm 16:55 Mostly Cloudy 72 22.2 59 14.9 63 63 SSE 16 26 29.94 1014 10 16.0934 0 0
5:15 pm 17:15 Mostly Cloudy 72 22.2 59 14.8 63 63 SSE 17 28 29.94 1014 10 16.0934 0 0
5:35 pm 17:35 Mostly Cloudy 73 22.6 58 14.7 61 61 SSE 16 26 29.94 1014 10 16.0934 0 0
5:55 pm 17:55 Mostly Cloudy 73 22.8 59 14.8 61 61 SE 17 28 29.94 1014 10 16.0934 0 0
6:15 pm 18:15 Partly Cloudy 73 22.6 59 14.8 62 62 SSE 17 28 29.94 1014 10 16.0934 0 0
6:35 pm 18:35 Partly Cloudy 72 22.3 58 14.7 62 62 SSE 18 30 29.91 1013 10 16.0934 0 0
6:55 pm 18:55 Mostly Cloudy 72 22.4 59 15 63 63 SSE 16 26 29.91 1013 10 16.0934 0 0
7:15 pm 19:15 Mostly Cloudy 72 22.2 59 15 64 64 SSE 17 28 29.91 1013 10 16.0934 0 0
7:35 pm 19:35 Partly Cloudy 71 21.6 59 14.8 65 65 SSE 16 26 29.91 1013 10 16.0934 0 0
7:55 pm 19:55 Sunny 70 21.3 59 15 67 67 SSE 18 30 29.91 1013 10 16.0934 0 0
8:15 pm 20:15 Sunny 69 20.5 59 14.8 70 70 SE 16 26 29.91 1013 10 16.0934 0 0
8:35 pm 20:35 Sunny 68 19.8 58 14.7 73 73 SSE 14 22 29.91 1013 10 16.0934 0 0
8:55 pm 20:55 Sunny 67 19.3 58 14.5 74 74 SSE 14 22 29.94 1014 10 16.0934 0 0
9:15 pm 21:15 Clear 66 18.7 58 14.5 77 77 SE 15 24 29.94 1014 10 16.0934 0 0
9:35 pm 21:35 Clear 65 18.5 58 14.5 78 78 SE 16 26 29.94 1014 10 16.0934 0 0
9:55 pm 21:55 Clear 64 18 58 14.3 79 79 SE 13 20 29.97 1015 10 16.0934 0 0
10:15 pm 22:15 Clear 64 17.8 58 14.3 80 80 SE 14 22 29.97 1015 10 16.0934 0 0
10:35 pm 22:35 Clear 64 17.6 58 14.3 81 81 SE 13 20 29.97 1015 10 16.0934 0 0
10:55 pm 22:55 Clear 63 17.3 57 14.1 82 82 SSE 13 20 29.97 1015 10 16.0934 0 0
11:15 pm 23:15 Clear 63 17 57 14 83 83 SE 13 20 29.97 1015 10 16.0934 0 0
11:35 pm 23:35 Clear 62 16.8 57 14 84 84 SSE 14 22 29.94 1014 10 16.0934 0 0
11:55 pm 23:55 Clear 62 16.6 57 13.8 84 84 SSE 12 19 29.97 1015 10 16.0934 0 0

Powered by AerisWeather